Location: ?astrovice
(49.6513°N, 14.9287°E)
Time: 17:50:32
(UTC+00:00)

ATLAS 5 CENTAUR R/B - Pass Details

Date: 09 April 2020
Orbit: 543 x 1116 km, 63.4° (Epoch: 01 May)

Event Time Altitude Azimuth Distance (km) Brightness Sun altitude
Rises 20:00:20 0° 246° (WSW) 2,773 5.2 -20.2°
Reaches altitude 10° 20:02:33 10° 254° (WSW) 1,925 4.5 -20.4°
Maximum altitude 20:06:38 40° 325° (NW) 954 3.0 -20.9°
Drops below altitude 10° 20:11:17 10° 35° (NE) 2,201 4.5 -21.5°
Sets 20:13:59 0° 43° (NE) 3,227 5.3 -21.8°
